Wind_Speed
7 8 9 9 10 12 13 15 18 21 22 22 21 21 22 22 23 24 26 29 31 32 30 27 26 22 15 4 10 19 19 16 5 7 9 5 5 5 6 6 4 6 4 5 7 7 6
7 8 9 10 10 10 11 14 18 20 22 22 22 22 24 25 24 25 28 31 33 34 32 27 24 20 10 13 16 13 10 8 6 8 7 7 6 7 4 6 8 3 11 16 8 11 5
9 9 11 12 13 12 12 16 18 19 21 20 22 24 24 26 27 28 28 32 33 37 36 28 23 19 15 26 14 12 19 17 10 5 3 10 16 3 4 2 6 5 10 8 6 5 7
9 9 10 11 12 14 14 16 16 19 18 19 21 22 23 24 25 27 29 31 36 40 41 34 21 15 11 19 23 28 28 29 27 28 20 15 7 5 5 4 5 3 3 3 3 10 6
8 9 9 11 12 14 15 15 16 18 18 18 19 22 24 25 25 28 28 32 39 46 38 22 10 8 13 11 10 23 23 13 11 21 16 9 6 6 3 6 3 3 4 5 2 8 5
8 9 11 11 13 14 16 16 18 19 19 20 21 22 25 27 29 28 27 33 41 19 5 10 5 3 9 6 5 5 4 14 4 8 3 5 3 4 4 5 12 7 4 4 4 2 3
9 9 10 11 12 13 14 15 17 18 19 20 21 22 24 27 27 23 25 21 6 3 3 6 6 6 8 11 4 2 2 5 3 3 8 5 5 11 8 9 5 2 5 5 1 3 3
9 10 11 11 12 12 13 14 16 17 18 20 21 23 23 23 24 24 25 2 6 9 13 14 20 22 36 22 10 16 3 5 5 6 6 3 18 7 8 7 6 6 6 5 4 6 5
8 10 10 12 12 13 13 15 16 17 18 19 19 20 23 24 24 19 10 10 20 21 8 10 10 9 10 17 14 22 4 2 4 7 10 7 4 11 12 7 9 6 9 3 8 4 3
8 9 11 12 13 13 14 15 17 17 18 18 20 22 23 24 12 11 15 11 23 29 5 6 5 6 6 7 7 11 18 7 5 10 6 7 7 5 7 8 7 10 8 9 6 2 3
9 9 10 11 12 13 14 15 17 17 18 19 20 22 22 15 11 3 19 23 21 13 5 1 3 5 5 7 5 4 7 1 9 7 6 6 3 8 10 6 8 5 8 8 6 5 1
8 9 11 11 12 13 14 15 15 16 18 19 19 21 20 13 10 16 16 26 10 2 5 8 3 0 3 5 3 3 4 2 3 2 0 5 1 3 7 5 8 5 3 3 2 3 3
11 9 9 10 11 13 14 15 16 18 18 20 21 21 18 11 5 13 19 7 6 3 9 9 6 7 3 5 1 3 5 5 5 5 6 0 10 2 3 3 2 3 5 1 1 1 5
8 9 9 10 12 13 14 15 16 17 18 19 22 22 20 17 19 22 10 3 3 7 6 8 7 9 5 10 5 6 6 3 3 1 4 6 2 10 7 12 8 7 7 4 5 4 3
11 10 9 11 11 12 13 14 16 18 15 20 20 18 12 7 10 3 3 2 5 7 9 9 9 7 8 6 4 7 6 8 8 11 3 3 3 2 3 5 12 5 5 7 2 1 1
9 10 10 10 11 11 13 13 15 16 14 16 12 9 9 12 1 3 3 4 5 4 8 6 7 7 8 10 8 8 8 8 9 8 5 2 1 3 2 4 4 6 5 3 1 3 5
10 10 9 11 11 11 11 12 13 14 12 11 6 3 11 7 4 3 2 3 5 5 4 4 5 4 4 7 6 5 8 5 11 12 8 6 2 6 5 2 2 2 3 4 4 5 3
11 11 13 9 10 10 11 11 11 11 8 6 3 3 3 3 2 2 2 3 7 5 4 3 2 2 3 5 4 5 5 5 9 11 6 2 1 2 6 3 3 3 2 6 3 3 2
10 12 11 10 11 12 12 12 11 8 4 3 2 2 3 1 0 1 5 4 4 4 5 5 4 2 1 3 4 3 2 1 6 6 4 5 2 1 4 3 3 4 2 1 2 3 5
12 12 11 11 12 13 13 13 12 7 4 2 2 3 3 2 1 4 3 3 4 6 4 4 4 4 4 2 4 4 3 2 6 7 11 1 1 2 4 3 5 4 3 2 1 2 3
11 12 12 13 14 14 14 14 13 7 8 5 0 3 3 2 1 3 4 3 5 3 3 6 4 6 3 4 5 3 3 4 4 5 7 2 1 2 4 5 9 5 3 2 1 2 4
13 14 14 14 14 15 14 12 8 7 14 5 3 2 1 3 3 4 3 2 5 5 3 2 3 8 5 4 4 5 6 2 3 6 3 4 3 2 3 4 10 8 8 4 8 7 10
15 14 15 15 15 14 13 11 7 8 19 4 4 2 1 3 3 1 3 3 4 5 3 3 5 7 6 5 7 13 7 6 4 2 3 2 2 2 1 2 7 5 5 2 4 3 2
17 15 15 16 16 14 13 12 9 9 22 14 7 5 2 4 3 3 4 3 5 6 5 9 7 3 4 8 7 5 6 8 6 12 8 5 4 1 3 4 2 4 4 8 10 5 6
17 17 15 17 18 15 14 13 11 12 15 22 13 5 3 3 4 7 9 8 6 5 5 8 10 5 5 3 4 4 1 2 5 10 7 12 2 2 1 1 5 2 2 1 3 0 4
19 17 16 17 18 16 16 14 13 13 13 23 20 16 3 1 5 10 3 4 3 3 5 4 4 4 2 1 2 2 2 3 1 2 7 6 4 3 1 1 3 2 1 5 2 2 0
19 18 17 18 18 17 17 15 15 14 15 19 11 29 4 2 4 3 3 3 3 2 3 4 6 6 2 1 2 2 2 2 2 2 1 2 1 6 2 1 6 3 7 3 2 2 4
20 19 17 20 19 18 18 16 15 14 15 20 13 24 13 3 5 3 5 6 1 1 1 4 4 2 3 2 1 2 1 1 2 1 3 3 3 3 3 3 6 8 4 1 2 6 7
20 19 18 20 20 20 19 18 17 14 15 18 7 22 28 2 2 4 12 17 14 12 3 3 2 1 1 3 1 2 2 3 2 1 2 1 2 2 4 2 5 6 6 6 7 6 6
Wind_Direction
353 354 351 348 347 346 345 343 339 334 331 327 327 325 321 320 318 316 316 318 319 320 319 319 322 324 335 306 255 254 287 291 305 169 192 182 148 158 180 192 204 232 227 231 236 241 238
342 353 348 341 331 335 339 342 336 331 326 325 325 318 321 321 320 314 313 315 316 316 315 313 313 315 296 265 263 280 272 274 224 202 207 173 198 202 214 206 190 225 229 246 234 254 243
348 346 343 344 344 345 343 329 330 328 324 320 322 318 313 312 312 313 311 312 311 309 307 303 301 300 263 247 247 270 277 282 246 241 249 220 220 173 168 275 250 255 261 267 222 213 236
349 355 351 352 347 340 336 335 335 334 327 325 323 321 319 317 317 314 310 311 309 306 304 296 288 271 256 268 273 269 271 270 256 252 249 252 215 191 177 278 322 253 228 214 237 185 222
348 345 353 350 344 345 342 343 340 336 339 336 334 329 325 323 320 316 313 312 309 304 303 281 225 209 270 281 258 266 244 235 229 230 230 240 158 192 151 159 303 257 240 210 280 197 185
353 345 346 343 348 340 334 331 330 327 325 325 327 327 328 322 323 319 318 313 306 309 51 126 180 222 264 250 285 263 240 207 214 135 140 189 184 185 173 154 215 212 217 237 213 299 237
5 355 346 344 340 334 338 338 330 327 327 326 327 323 320 325 326 322 323 334 354 307 289 252 228 266 301 340 332 243 95 168 237 122 164 191 189 213 192 202 211 200 225 220 179 231 347
347 339 340 340 334 338 338 335 330 328 328 331 330 323 321 321 321 317 311 203 246 340 290 243 250 251 256 271 300 286 301 192 173 174 143 144 234 211 196 210 211 205 233 244 265 244 264
339 331 336 336 335 334 334 337 336 333 335 333 333 331 335 325 316 320 317 271 295 322 267 272 219 230 228 199 233 259 209 225 198 175 187 200 206 193 185 192 206 194 213 170 245 324 293
326 334 333 329 330 334 335 336 341 338 334 328 331 331 326 330 319 342 305 317 314 313 273 266 219 250 188 137 239 217 195 169 214 198 163 232 234 146 182 217 175 228 178 203 229 138 249
315 328 325 329 332 330 334 336 333 334 332 328 328 325 323 331 296 286 279 311 325 281 285 179 145 165 151 185 299 183 153 101 180 178 159 222 198 202 211 192 171 216 178 191 207 187 134
312 318 321 326 326 329 337 339 339 340 338 334 324 325 330 328 270 291 309 321 325 202 251 348 101 63 180 222 281 140 131 49 142 166 132 212 1 147 183 184 168 175 149 155 80 124 259
309 312 316 325 326 330 332 329 329 329 331 328 321 317 315 309 266 301 317 333 268 220 338 344 335 334 289 317 45 183 151 168 142 133 232 61 245 236 143 99 111 157 95 198 233 198 236
308 316 309 322 322 326 325 328 333 331 325 323 323 318 307 292 292 285 317 262 282 31 6 330 326 335 53 10 351 334 120 148 206 134 144 178 232 170 197 197 186 185 164 172 200 195 240
301 301 313 316 326 325 326 327 333 332 326 326 324 325 320 337 311 270 39 304 307 29 333 319 314 29 12 356 6 10 46 15 38 14 306 135 277 206 193 175 171 193 182 188 261 206 322
294 312 312 314 317 319 329 329 329 331 334 339 327 319 314 319 126 75 80 267 350 352 327 334 13 12 14 3 15 15 22 33 359 3 333 299 1 259 66 115 218 189 173 100 63 208 242
305 303 305 305 306 309 320 325 328 333 333 340 342 357 2 104 164 43 139 288 289 315 355 331 326 327 6 15 350 0 30 58 8 353 346 352 106 295 24 12 131 104 225 202 168 161 239
294 294 304 307 303 306 310 313 324 335 337 4 11 352 7 190 45 140 300 283 324 301 305 310 297 290 7 356 3 18 13 17 356 337 344 11 12 256 236 255 184 162 212 174 169 208 221
277 290 300 300 299 306 303 303 306 314 317 344 319 275 337 179 318 270 290 270 264 313 318 333 327 5 342 338 347 0 349 71 14 348 7 347 355 45 328 16 13 108 108 19 119 94 214
277 285 291 292 297 306 303 299 294 285 246 161 36 323 320 48 316 317 328 329 320 314 279 287 290 334 328 248 236 310 307 8 351 344 332 324 1 302 177 225 319 301 140 85 120 149 172
266 277 290 290 294 300 301 300 284 251 207 175 115 247 206 297 134 297 317 302 298 318 310 352 21 33 20 313 328 220 309 350 321 327 2 302 225 270 245 351 311 234 278 58 145 286 189
269 272 285 286 288 299 301 301 282 238 190 157 163 198 285 279 282 282 274 275 319 344 310 24 19 334 317 264 229 285 321 76 302 350 324 302 7 294 297 90 289 284 207 196 272 215 262
265 268 277 278 286 293 295 294 279 227 184 165 175 170 106 289 312 53 249 270 322 0 285 270 324 320 295 275 256 255 247 248 204 270 318 265 243 264 305 80 313 268 223 170 107 42 250
260 265 272 274 284 286 286 289 283 243 211 194 178 143 163 261 222 217 264 318 311 314 279 292 301 266 273 329 291 272 244 246 215 240 215 277 344 350 303 22 215 273 23 132 99 58 27
256 265 266 270 283 280 280 286 281 259 229 197 192 155 167 243 223 253 255 267 286 289 274 266 275 233 327 326 321 304 280 323 259 236 219 206 174 299 334 165 273 174 334 106 155 46 355
252 261 264 264 279 276 277 283 281 264 240 203 201 193 160 161 232 239 263 235 248 267 307 261 294 319 344 68 334 294 310 303 334 164 17 142 183 155 134 39 270 239 211 10 195 185 151
249 255 261 262 276 273 276 284 284 260 237 208 205 200 161 211 248 188 184 208 198 256 270 313 339 339 0 37 270 263 281 291 311 300 152 101 146 198 148 254 285 331 315 335 143 204 72
249 251 259 261 272 274 278 279 283 268 256 238 204 201 189 206 245 225 215 217 270 152 211 313 358 355 318 294 271 297 233 261 295 196 184 188 148 176 168 188 257 6 332 213 153 57 71
251 248 259 258 270 271 276 276 275 276 268 209 168 194 200 204 282 270 256 257 247 238 203 238 236 297 193 297 256 316 305 336 337 316 37 10 325 286 201 184 63 11 42 38 66 75 54
Height
822 821 819 818 817 816 815 814 814 814 811 808 807 803 801 798 798 796 792 789 786 785 783 781 780 778 771 767 752 733 731 733 733 733 734 736 738 742 747 746 746 748 741 738 736 736 737
821 819 818 816 815 814 813 812 810 809 810 807 804 803 799 796 793 792 788 785 783 780 778 777 777 777 775 764 735 735 729 728 731 732 732 733 734 736 739 740 744 734 735 731 732 732 734
820 819 817 816 815 813 811 810 808 807 808 805 802 800 796 795 790 788 786 782 778 776 773 772 774 774 766 739 730 730 729 727 728 729 731 730 729 733 734 737 730 731 737 734 733 731 733
820 817 816 814 813 812 809 808 806 806 804 801 800 798 794 791 788 785 781 778 774 768 765 766 767 770 749 732 728 722 723 719 720 724 730 729 730 731 733 729 731 732 733 742 726 726 724
816 817 814 813 811 809 810 806 806 805 802 800 797 795 792 789 785 781 777 774 768 762 755 756 762 763 744 728 722 711 715 717 714 718 723 726 728 732 733 740 745 741 748 741 729 721 719
815 816 814 812 809 809 808 806 805 804 803 798 794 793 790 786 782 778 775 770 760 755 752 753 757 764 737 721 712 711 708 714 711 714 722 728 730 735 738 742 738 742 744 738 735 723 721
815 814 813 810 808 808 806 805 803 802 799 797 792 789 787 784 780 777 773 769 763 755 752 746 744 735 723 719 709 710 709 711 710 712 719 725 731 731 734 729 726 727 733 735 729 722 727
815 814 812 809 808 806 804 803 802 799 796 793 790 788 786 783 779 776 774 774 772 771 753 738 733 729 725 727 726 707 708 710 710 716 717 729 722 720 723 727 728 729 735 736 731 725 726
813 813 810 809 807 805 803 802 800 796 793 789 789 787 783 780 778 775 774 770 769 767 751 723 717 713 712 716 717 702 709 705 708 711 715 718 710 707 718 725 728 731 733 734 733 727 725
813 809 808 807 806 804 802 800 797 794 791 789 786 784 782 780 780 777 774 769 766 766 750 720 710 702 701 704 710 694 695 700 706 708 710 713 703 709 718 721 723 729 726 727 732 736 746
809 806 806 804 804 802 800 797 795 792 789 786 785 784 781 778 779 777 772 768 763 763 753 697 700 697 696 700 694 689 690 696 701 705 706 707 703 708 709 713 718 723 718 725 728 736 733
806 804 803 802 802 801 798 796 793 791 788 786 785 782 780 776 778 773 770 767 762 742 742 700 695 696 702 695 689 690 691 694 697 702 703 705 701 700 705 705 711 709 714 721 728 737 747
804 801 801 800 800 798 796 794 792 789 787 786 783 781 779 776 776 774 772 770 762 744 715 720 709 701 697 695 686 686 692 698 708 715 714 706 703 701 696 706 709 710 723 733 739 742 729
801 800 799 798 797 795 795 793 790 787 786 784 782 779 775 773 772 771 771 770 754 732 733 718 713 701 707 703 697 696 693 696 695 697 710 708 703 700 695 699 707 714 717 727 724 728 723
798 797 796 796 794 794 793 791 789 787 785 783 779 776 772 770 770 770 773 769 753 746 740 735 718 713 718 708 706 701 701 710 715 713 706 708 701 691 692 690 695 709 717 707 715 714 722
795 794 794 793 793 792 790 789 788 787 785 783 781 778 773 771 770 771 784 765 755 756 745 738 737 729 730 723 719 715 711 720 718 716 718 699 702 686 682 687 692 694 696 712 721 721 718
791 791 791 791 791 790 788 788 787 786 785 783 783 782 776 770 773 777 803 773 761 749 746 746 741 738 733 732 727 724 720 720 720 715 711 711 700 698 690 691 694 701 703 699 703 714 710
789 789 788 788 789 788 787 787 786 786 785 784 786 794 777 777 782 783 791 768 759 754 747 744 741 738 737 737 735 727 726 723 722 721 716 717 716 707 699 687 688 689 694 699 709 706 710
786 785 786 785 787 785 784 784 785 785 785 786 789 785 778 777 791 778 767 768 761 757 752 747 745 737 737 742 744 732 731 725 725 726 722 721 718 708 696 694 691 695 696 696 698 705 703
782 782 782 783 784 782 782 782 782 784 785 787 791 792 786 780 780 778 773 766 767 756 752 747 745 741 741 739 739 738 732 725 727 724 719 720 721 721 710 719 716 705 695 696 700 705 704
777 779 779 779 779 779 779 778 779 781 783 787 790 794 789 793 778 777 775 771 765 760 750 748 747 749 752 747 740 738 733 730 726 724 725 720 727 723 714 716 711 702 703 695 699 698 704
774 775 775 776 776 775 775 775 775 778 781 786 790 796 789 786 780 776 772 768 764 762 758 752 755 752 750 751 741 743 734 736 734 725 724 724 724 724 714 705 710 703 700 700 700 697 698
770 770 771 772 772 771 771 771 772 774 777 781 784 786 787 783 782 782 778 765 763 762 756 753 755 754 749 739 736 733 732 729 728 730 729 729 721 726 713 709 713 710 695 693 701 703 699
765 766 766 767 768 767 768 768 769 771 771 776 778 781 786 787 782 776 769 767 766 764 764 754 753 752 741 737 731 727 727 726 729 725 729 731 722 729 716 715 733 706 689 692 698 701 699
760 761 762 763 763 763 763 764 765 767 768 769 774 776 781 789 775 771 770 769 765 762 761 756 748 745 742 740 740 730 724 723 717 717 721 725 724 730 724 729 715 701 696 697 696 708 707
754 755 757 758 758 758 759 759 760 761 763 765 767 771 775 778 772 764 765 765 767 763 759 752 746 743 742 744 743 731 725 717 712 712 715 718 719 723 728 720 733 700 700 701 699 702 709
748 750 751 752 753 753 753 754 755 756 758 760 761 766 770 770 765 763 766 764 760 760 760 756 751 748 745 749 739 741 730 719 718 712 721 725 726 723 726 728 715 706 706 703 710 718 715
742 744 745 747 748 748 748 749 749 751 752 754 755 760 765 765 760 758 758 760 760 760 761 756 760 753 751 746 742 739 741 728 726 718 729 722 723 728 726 728 727 716 708 708 720 720 722
736 738 740 741 742 742 743 744 745 745 745 746 751 755 759 762 759 756 755 756 756 754 760 758 758 755 755 745 743 741 738 740 731 729 724 719 724 723 715 714 722 724 723 723 721 725 729